Regional Weather Roundup
Issued by NWS

Home | Current Version | Previous Version | Text Only | Print | Product List | Glossary On
Versions: 1 2 3 4 5 6 7 8 9 10 11 12 13 14 15 16 17 18 19 20 21 22 23 24 25 26 27 28
000
ASCA42 TJSJ 281110
RWRPR
PUERTO RICO/U.S. VIRGIN ISLANDS HOURLY WEATHER ROUNDUP
NATIONAL WEATHER SERVICE SAN JUAN PR
700 AM AST FRI APR 28 2017

PRZ001>002-007>008-010-281200-
PUERTO RICO

CITY           SKY/WX    TMP DP  RH WIND       PRES   REMARKS
SAN JUAN LMM   MOSUNNY   79  75  89 E13       30.03R
AGUADILLA      MOSUNNY   75  70  83 E8        30.02
CEIBA          CLOUDY    81  73  78 E10       30.05R
$$

VIZ001>002-281200-
U.S. VIRGIN ISLANDS

CITY           SKY/WX    TMP DP  RH WIND       PRES   REMARKS
CHARLOTTE AMA  MOSUNNY   79  73  83 E13       30.03R
CHRISTIANSTED  SUNNY     79  73  83 E9        30.03R
$$

HOURLY WEATHER ROUNDUP FOR THE NEWS MEDIA

CITY           SKY/WX    TMP DP  RH WIND       PRES   REMARKS
ORLANDO        CLEAR     72  67  84 SE5       30.03R
NEW YORK       CLOUDY    57  57 100 N5        29.92S FOG
NEWARK         FOG       59  58  96 N5        29.92R VSB 1/2
CHICAGO        CLOUDY    42  34  73 NW5       29.89R
HARTFORD       TSTM      56  56 100 S9        29.97R VSB 1/4
BOSTON         FOG       57  57 100 SE5       29.94R VSB 1/4
DALLAS         CLOUDY    68  61  78 S15       29.55F
PHILADELPHIA   PTCLDY    65  62  90 SW6       29.94R
LOS ANGELES    PTCLDY    71  29  21 N26G36    29.69F
WASHINGTON DC  PTCLDY    58  57  97 CALM      29.97R FOG



USA.gov is the U.S. government's official web portal to all federal, state and local government web resources and services.